This demonstration page uses our WeatherBlox Daily Observations layout. Learn more.

Left ArrowRight Arrow

Hourly Observations for May 28, 2017

Temp ( °F °C ) Dew Point ( °F °C ) Humidity (%) Winds ( mph kmh ) Pressure ( in mb ) Visibility ( mi km ) Precip ( " mm )
12:56 am 00:56 Mostly Clear 57 13.9 54 12.1 89 89 WNW 6 9 29.91 1013 10 16 0.00 0.00
1:56 am 01:56 Clear 56 13.6 52 11.3 86 86 NW 6 9 29.91 1013 10 16 0.00 0.00
2:56 am 02:56 Clear 58 14.2 52 11.3 83 83 W 3 6 29.92 1013 10 16 0.00 0.00
3:56 am 03:56 Clear 52 11.3 51 10.5 95 95 W 3 6 29.91 1013 10 16 0.00 0.00
4:56 am 04:56 Clear 55 12.5 51 10.4 87 87 Calm 29.89 1012 10 16 0.00 0.00
5:56 am 05:56 Sunny 54 12.2 50 10.1 87 87 W 3 6 29.88 1012 10 16 0.00 0.00
6:56 am 06:56 Sunny 56 13.2 52 10.9 86 86 Calm 29.88 1012 10 16 0.00 0.00
7:56 am 07:56 Sunny 59 15.2 53 11.6 79 79 WNW 9 15 29.90 1013 10 16 0.00 0.00
8:56 am 08:56 Sunny 64 17.7 52 11.3 66 66 WNW 9 15 29.91 1013 10 16 0.00 0.00
9:56 am 09:56 Sunny 68 19.9 52 10.9 56 56 W 8 13 29.92 1013 10 16 0.00 0.00
10:56 am 10:56 Sunny 71 21.9 51 10.7 49 49 WNW 7 11 29.91 1013 10 16 0.00 0.00
11:56 am 11:56 Sunny 74 23.3 51 10.3 44 44 SW 5 7 29.92 1013 10 16 0.00 0.00
12:56 pm 12:56 Sunny 77 25 50 10.1 39 39 SW 9 15 29.91 1013 10 16 0.00 0.00
1:34 pm 13:34 Mostly Sunny 79 26 48 9 34 34 WSW 13 20 29.88 1012 10 16 0.00 0.00
1:56 pm 13:56 Mostly Sunny 80 26.6 47 8.1 31 31 WSW 15 24 29.88 1012 10 16 0.00 0.00
2:56 pm 14:56 Mostly Sunny 78 25.7 46 7.8 32 32 W 12 19 29.87 1011 10 16 0.00 0.00
3:56 pm 15:56 Sunny 80 26.9 45 7.3 29 29 NW 18 30 29.87 1011 10 16 0.00 0.00
4:56 pm 16:56 Sunny 80 26.5 43 6 27 27 WNW 18 30 29.88 1012 10 16 0.00 0.00
5:56 pm 17:56 Sunny 78 25.6 39 4.1 25 25 WNW 18 30 29.89 1012 10 16 0.00 0.00
6:56 pm 18:56 Sunny 77 24.8 40 4.5 27 27 WNW 15 24 29.88 1012 10 16 0.00 0.00
7:56 pm 19:56 Sunny 74 23.1 42 5.5 32 32 WNW 10 17 29.89 1012 10 16 0.00 0.00
8:56 pm 20:56 Clear 64 17.8 47 8.4 54 54 W 3 6 29.89 1012 10 16 0.00 0.00
9:56 pm 21:56 Clear 58 14.2 51 10.6 79 79 Calm 29.89 1012 10 16 0.00 0.00
10:56 pm 22:56 Clear 56 13.5 49 9.3 76 76 Calm 29.88 1012 10 16 0.00 0.00
11:56 pm 23:56 Clear 54 12.3 46 8 75 75 W 3 6 29.87 1012 10 16 0.00 0.00

Powered by AerisWeather